星链-5633 (STARLINK-5633 )

导读

STARLINK-5633是美国太空探索技术公司(SpaceX)星链星座的组网卫星,于2023年1月31日发射升空,属于Starlink Group 2-6组。星链项目旨在构建全球卫星互联网系统,该卫星入轨后为提供全球范围高速互联网接入服务补充组网,助力星链完成低轨星座规模部署。

Basic Information
目录编号:
55410
目录名称:
STARLINK-5633
国际标识:
2023-014V
轨道中心:
EARTH
卫星名称:
星链-5633
卫星全名:
星链-5633 (STARLINK-5633 )
卫星状态:
在轨 (已飞行1231 天)
发射日期:
2023-01-31 UTC
国别 :
美国 (US)
星等 :
--
Orbit Information
数据来源 国际轨道数据 AOE轨道数据
星历时间 2026-06-15T03:22:59+0800
8小时前
查看轨道信息
2026-06-14T00:00:00+0800
1天前
查看轨道信息
半长轴 6950.192km 6950.181km
偏心率 0.0003827 0.000376
轨道倾角 69.999° 69.999°
近地点辐角 268.532° 268.857°
升交点赤经 199.417° 202.292°
平近点角 91.540° 58.647°
近地点 569.395km 569.43km
远地点 574.715km 574.658km
周期 96.107分钟 96.107分钟
每日圈数 14.983303 14.98334
Detailed Information
固有亮度:
5
最大亮度:
2.5
卫星平台:
Starlink v1.5
覆盖范围:
全球
运营商:
太空探索技术公司
运营商所在国:
美国
制造商(研发单位):
太空探索技术公司
制造商所在国:
美国
使用方式:
暂无
Satellite Introduction
星链(Starlink)计划是由太空探索技术公司(SpaceX)提出的一个巨型低轨卫星互联网星座项目,计划在2019年至2024年间在太空搭建由约1.2万颗卫星组成的“星链”网络,其中1584颗将部署在地球上空550千米处的近地轨道,并从2020年开始工作。该卫星仍在工作。
2D Orbit Map
3D Orbit Map
Orbit Altitude Analysis Chart
Orbit Inclination Analysis Chart
Orbit Comprehensive Analysis Chart
View Comprehensive Chart